CW9825 Weather Reports


time (UTC)temp
C
wind
direction
speed
KPH
gust
KPH
rain 1hr
cm
rain 24hr
cm
rain mn
cm
humidity
%
barometer
mb
20210927071037 12 13 0.0 1.6 0.00 0.00 0.00 81 1009.2
20210927070534 12 13 0.0 3.2 0.00 0.00 0.00 80 1009.1
20210927070057 12 13 0.0 3.2 0.00 0.00 0.00 79 1009.0
20210927065527 12 13 0.0 1.6 0.00 0.00 0.00 79 1009.0
20210927065026 12 13 0.0 1.6 0.00 0.00 0.00 80 1009.0
20210927064535 12 13 0.0 3.2 0.00 0.00 0.00 79 1009.0
20210927064025 12 13 0.0 3.2 0.00 0.00 0.00 78 1008.9
20210927063551 12 13 0.0 4.8 0.00 0.00 0.00 77 1008.8
20210927063044 12 13 1.6 6.4 0.00 0.00 0.00 77 1008.8
20210927062537 12 13 1.6 6.4 0.00 0.00 0.00 77 1008.7
20210927062022 12 13 1.6 6.4 0.00 0.00 0.00 78 1008.7
20210927061628 13 14 1.6 8.0 0.00 0.00 0.00 77 1008.8
20210927061022 13 14 3.2 8.0 0.00 0.00 0.00 77 1008.7
20210927060521 13 15 3.2 8.0 0.00 0.00 0.00 78 1008.8
20210927060050 13 15 4.8 8.0 0.00 0.00 0.00 77 1008.8
20210927055520 13 13 3.2 6.4 0.00 0.00 0.00 77 1008.7
20210927055019 13 22 3.2 6.4 0.00 0.00 0.00 77 1008.7
20210927054525 13 21 1.6 6.4 0.00 0.00 0.00 77 1008.6
20210927054019 13 21 3.2 6.4 0.00 0.00 0.00 77 1008.6
20210927053518 13 16 3.2 9.7 0.00 0.00 0.00 76 1008.7
20210927053034 13 16 4.8 11.3 0.00 0.00 0.00 76 1008.7
20210927052519 13 5 1.6 8.0 0.00 0.00 0.00 76 1008.6
20210927052016 13 5 4.8 9.7 0.00 0.00 0.00 75 1008.5
20210927051540 13 24 4.8 9.7 0.00 0.00 0.00 75 1008.4
20210927051019 13 17 1.6 8.0 0.00 0.00 0.00 75 1008.4
20210927050513 14 11 4.8 8.0 0.00 0.00 0.00 74 1008.5
20210927050102 14 11 3.2 9.7 0.00 0.00 0.00 74 1008.4
20210927045511 14 5 4.8 9.7 0.00 0.00 0.00 74 1008.4
20210927045010 14 21 3.2 9.7 0.00 0.00 0.00 74 1008.3
20210927044509 14 19 3.2 9.7 0.00 0.00 0.00 73 1008.2
20210927044013 14 34 4.8 11.3 0.00 0.00 0.00 72 1008.3
20210927043514 15 17 4.8 8.0 0.00 0.00 0.00 72 1008.2
20210927043010 15 16 3.2 8.0 0.00 0.00 0.00 71 1008.3
20210927042509 15 12 3.2 8.0 0.00 0.00 0.00 71 1008.3
20210927042008 15 13 4.8 8.0 0.00 0.00 0.00 70 1008.2
20210927041509 15 12 3.2 9.7 0.00 0.00 0.00 69 1008.3
20210927041008 15 5 3.2 9.7 0.00 0.00 0.00 68 1008.2
20210927040011 16 10 3.2 14.5 0.00 0.00 0.00 67 1008.1
20210927035016 16 18 8.0 14.5 0.00 0.00 0.00 66 1008.1
20210927034510 16 12 6.4 12.9 0.00 0.00 0.00 67 1008.1
20210927034007 16 11 3.2 9.7 0.00 0.00 0.00 67 1008.2
20210927033506 16 347 3.2 12.9 0.00 0.00 0.00 66 1008.3
20210927033005 16 318 3.2 12.9 0.00 0.00 0.00 66 1008.1
20210927032506 16 332 6.4 12.9 0.00 0.00 0.00 66 1008.0
20210927032004 17 5 3.2 9.7 0.00 0.00 0.00 65 1008.0
20210927031509 17 5 3.2 9.7 0.00 0.00 0.00 65 1007.9
20210927030504 17 355 1.6 9.7 0.00 0.00 0.00 65 1007.9
20210927030005 17 355 3.2 9.7 0.00 0.00 0.00 65 1007.9
20210927025511 17 360 3.2 6.4 0.00 0.00 0.00 64 1007.8
20210927025003 17 338 1.6 9.7 0.00 0.00 0.00 65 1007.8
20210927024100 17 12 3.2 9.7 0.00 0.00 0.00 63 1007.6
20210927023559 18 5 4.8 9.7 0.00 0.00 0.00 64 1007.5
20210927023215 18 9 3.2 8.0 0.00 0.00 0.00 65 1007.3
20210927022619 18 5 1.6 6.4 0.00 0.00 0.00 65 1007.3
20210927022058 18 5 1.6 6.4 0.00 0.00 0.00 66 1007.3
20210927021628 18 5 1.6 6.4 0.00 0.00 0.00 66 1007.2
20210927021137 18 360 1.6 4.8 0.00 0.00 0.00 67 1007.2
20210927020556 17 355 0.0 3.2 0.00 0.00 0.00 68 1007.1
20210927020114 17 355 0.0 3.2 0.00 0.00 0.00 68 1006.9
20210927015609 17 355 0.0 3.2 0.00 0.00 0.00 69 1006.9
20210927015115 17 355 0.0 3.2 0.00 0.00 0.00 68 1007.0
20210927014745 17 355 0.0 3.2 0.00 0.00 0.00 67 1006.8
20210927014113 18 355 0.0 3.2 0.00 0.00 0.00 66 1006.7
20210927013634 18 355 0.0 0.0 0.00 0.00 0.00 65 1006.7
20210927013132 18 355 0.0 0.0 0.00 0.00 0.00 65 1006.6
20210927012552 18 355 0.0 0.0 0.00 0.00 0.00 65 1006.6
20210927012107 18 355 0.0 0.0 0.00 0.00 0.00 65 1006.7
20210927011649 18 355 0.0 0.0 0.00 0.00 0.00 64 1006.6
20210927011100 19 355 0.0 1.6 0.00 0.00 0.00 62 1006.5
20210927010551 19 355 0.0 3.2 0.00 0.00 0.00 62 1006.4
20210927010114 19 355 0.0 1.6 0.00 0.00 0.00 61 1006.4
20210927005610 20 355 0.0 3.2 0.00 0.00 0.00 61 1006.4
20210927005051 20 355 0.0 4.8 0.00 0.00 0.00 59 1006.4
20210927004638 20 355 1.6 6.4 0.00 0.00 0.00 58 1006.3
20210927004101 21 355 1.6 6.4 0.00 0.00 0.00 57 1006.2
20210927003625 21 355 1.6 8.0 0.00 0.00 0.00 57 1006.1
20210927003103 21 355 3.2 8.0 0.00 0.00 0.00 57 1006.0
20210927002550 21 5 3.2 8.0 0.00 0.00 0.00 55 1005.9
20210927002049 21 13 4.8 8.0 0.00 0.00 0.00 55 1005.8
20210927001616 21 349 4.8 9.7 0.00 0.00 0.00 55 1005.7
20210927001059 22 360 4.8 9.7 0.00 0.00 0.00 54 1005.6
20210927000602 22 12 4.8 8.0 0.00 0.00 0.00 53 1005.5
20210927000104 22 5 4.8 9.7 0.00 0.00 0.00 52 1005.5
20210926235549 23 13 3.2 9.7 0.00 0.00 0.00 52 1005.4
20210926235052 23 23 3.2 8.0 0.00 0.00 0.00 50 1005.4
20210926234600 23 18 3.2 12.9 0.00 0.00 0.00 49 1005.4
20210926234053 24 20 4.8 12.9 0.00 0.00 0.00 49 1005.4
20210926233548 23 13 3.2 8.0 0.00 0.00 0.00 49 1005.2
20210926233152 24 14 3.2 9.7 0.00 0.00 0.00 48 1005.2
20210926232547 24 21 4.8 14.5 0.00 0.00 0.00 47 1005.2
20210926232107 24 32 6.4 17.7 0.00 0.00 0.00 46 1005.1
20210926231553 25 20 6.4 17.7 0.00 0.00 0.00 45 1005.2
20210926231050 25 22 6.4 19.3 0.00 0.00 0.00 44 1005.1
20210926230554 25 350 8.0 19.3 0.00 0.00 0.00 45 1005.0
20210926230139 25 5 9.7 19.3 0.00 0.00 0.00 45 1005.0
20210926225544 25 15 9.7 19.3 0.00 0.00 0.00 45 1004.9
20210926225044 25 24 8.0 17.7 0.00 0.00 0.00 45 1004.8
20210926224604 26 42 8.0 20.9 0.00 0.00 0.00 43 1004.8
20210926224043 26 11 8.0 20.9 0.00 0.00 0.00 44 1004.6
20210926223545 26 18 9.7 20.9 0.00 0.00 0.00 43 1004.6
20210926223106 26 5 6.4 17.7 0.00 0.00 0.00 44 1004.6
20210926222540 26 360 6.4 17.7 0.00 0.00 0.00 42 1004.6
20210926222040 26 355 9.7 17.7 0.00 0.00 0.00 42 1004.7
20210926221040 26 26 9.7 19.3 0.00 0.00 0.00 43 1004.6
20210926220540 26 15 8.0 24.1 0.00 0.00 0.00 41 1004.5
20210926220052 27 355 11.3 24.1 0.00 0.00 0.00 41 1004.5
20210926215549 26 10 6.4 16.1 0.00 0.00 0.00 42 1004.5
20210926215047 26 18 6.4 16.1 0.00 0.00 0.00 43 1004.5
20210926214629 27 345 4.8 16.1 0.00 0.00 0.00 41 1004.4
20210926214038 27 15 6.4 16.1 0.00 0.00 0.00 41 1004.4
20210926213539 27 360 6.4 14.5 0.00 0.00 0.00 42 1004.4
20210926213209 27 290 6.4 16.1 0.00 0.00 0.00 43 1004.3
20210926212544 27 5 6.4 16.1 0.00 0.00 0.00 42 1004.3
20210926212058 27 333 3.2 12.9 0.00 0.00 0.00 41 1004.3
20210926211612 27 360 4.8 12.9 0.00 0.00 0.00 41 1004.1
20210926211043 27 285 4.8 11.3 0.00 0.00 0.00 43 1004.1
20210926210540 27 360 3.2 16.1 0.00 0.00 0.00 41 1004.0
20210926210043 27 336 6.4 16.1 0.00 0.00 0.00 43 1004.0
20210926205537 27 328 8.0 16.1 0.00 0.00 0.00 44 1004.0
20210926205037 27 346 3.2 9.7 0.00 0.00 0.00 40 1003.9
20210926204633 27 351 3.2 14.5 0.00 0.00 0.00 41 1003.8
20210926204054 27 329 3.2 14.5 0.00 0.00 0.00 41 1003.7
20210926203536 27 9 4.8 16.1 0.00 0.00 0.00 40 1003.7
20210926203114 27 18 3.2 16.1 0.00 0.00 0.00 43 1003.6
20210926202542 27 317 6.4 12.9 0.00 0.00 0.00 40 1003.6
20210926202039 27 313 4.8 11.3 0.00 0.00 0.00 39 1003.5
20210926201624 27 35 3.2 12.9 0.00 0.00 0.00 41 1003.5
20210926201039 27 342 6.4 12.9 0.00 0.00 0.00 40 1003.5
20210926200536 27 320 3.2 12.9 0.00 0.00 0.00 40 1003.6
20210926200048 27 30 3.2 9.7 0.00 0.00 0.00 41 1003.6
20210926195551 27 20 4.8 9.7 0.00 0.00 0.00 41 1003.6
20210926195031 27 321 1.6 6.4 0.00 0.00 0.00 41 1003.7
20210926194629 27 298 3.2 6.4 0.00 0.00 0.00 41 1003.7
20210926194030 27 271 1.6 12.9 0.00 0.00 0.00 40 1003.8
20210926193557 27 247 3.2 12.9 0.00 0.00 0.00 42 1003.8
20210926193029 27 271 6.4 12.9 0.00 0.00 0.00 41 1003.9
20210926192533 26 36 1.6 6.4 0.00 0.00 0.00 42 1003.9
20210926192037 26 320 3.2 6.4 0.00 0.00 0.00 41 1004.0
20210926191544 26 281 1.6 6.4 0.00 0.00 0.00 42 1004.0
20210926191025 26 283 0.0 4.8 0.00 0.00 0.00 44 1004.0
20210926190532 26 277 0.0 9.7 0.00 0.00 0.00 46 1004.0
20210926190113 26 282 3.2 9.7 0.00 0.00 0.00 46 1004.1
20210926185522 26 323 3.2 8.0 0.00 0.00 0.00 45 1004.1
20210926185021 26 319 4.8 8.0 0.00 0.00 0.00 47 1004.1
20210926184544 26 323 1.6 8.0 0.00 0.00 0.00 45 1004.1
20210926184019 26 333 1.6 6.4 0.00 0.00 0.00 45 1004.2
20210926183530 25 209 3.2 6.4 0.00 0.00 0.00 46 1004.1
20210926183123 25 290 3.2 6.4 0.00 0.00 0.00 48 1004.1
20210926182018 25 297 3.2 9.7 0.00 0.00 0.00 45 1004.2
20210926181521 25 17 4.8 9.7 0.00 0.00 0.00 47 1004.2
20210926181018 25 311 3.2 6.4 0.00 0.00 0.00 46 1004.1
20210926180515 25 313 3.2 8.0 0.00 0.00 0.00 49 1004.2
20210926180027 25 347 1.6 6.4 0.00 0.00 0.00 49 1004.2
20210926175513 23 285 0.0 4.8 0.00 0.00 0.00 51 1004.2
20210926175035 23 322 1.6 4.8 0.00 0.00 0.00 51 1004.3
20210926174546 23 262 0.0 4.8 0.00 0.00 0.00 51 1004.3
20210926174026 23 169 1.6 4.8 0.00 0.00 0.00 55 1004.3
20210926173509 23 167 1.6 4.8 0.00 0.00 0.00 56 1004.3
20210926173009 23 167 0.0 4.8 0.00 0.00 0.00 55 1004.3
20210926172007 23 166 1.6 4.8 0.00 0.00 0.00 57 1004.4
20210926171526 22 166 3.2 6.4 0.00 0.00 0.00 54 1004.4
20210926171009 22 166 1.6 8.0 0.00 0.00 0.00 57 1004.4
20210926170504 22 166 4.8 8.0 0.00 0.00 0.00 57 1004.4
20210926170004 21 145 1.6 8.0 0.00 0.00 0.00 60 1004.4
20210926165500 21 145 1.6 8.0 0.00 0.00 0.00 57 1004.5
20210926164656 21 184 1.6 8.0 0.00 0.00 0.00 58 1004.6
20210926164058 20 174 3.2 8.0 0.00 0.00 0.00 62 1004.7
20210926163557 20 185 1.6 6.4 0.00 0.00 0.00 59 1004.7
20210926163139 20 188 0.0 8.0 0.00 0.00 0.00 58 1004.7
20210926162105 19 193 3.2 8.0 0.00 0.00 0.00 59 1004.7
20210926161650 19 207 1.6 9.7 0.00 0.00 0.00 60 1004.7
20210926161102 19 196 4.8 9.7 0.00 0.00 0.00 60 1004.7
20210926160552 19 234 1.6 9.7 0.00 0.00 0.00 60 1004.7
20210926160147 19 170 4.8 9.7 0.00 0.00 0.00 61 1004.7
20210926155545 19 184 3.2 11.3 0.00 0.00 0.00 61 1004.7
20210926155118 18 182 0.0 9.7 0.00 0.00 0.00 62 1004.7
20210926154633 18 181 4.8 9.7 0.00 0.00 0.00 62 1004.7
20210926154043 18 193 4.8 11.3 0.00 0.00 0.00 63 1004.7
20210926153543 18 181 4.8 11.3 0.00 0.00 0.00 63 1004.6
20210926153102 17 186 3.2 11.3 0.00 0.00 0.00 67 1004.6
20210926152540 17 177 4.8 9.7 0.00 0.00 0.00 67 1004.7
20210926152040 17 174 4.8 9.7 0.00 0.00 0.00 69 1004.8
20210926151543 16 146 3.2 6.4 0.00 0.00 0.00 70 1004.8
20210926151036 15 144 1.6 11.3 0.00 0.00 0.00 71 1005.0
20210926150539 15 144 4.8 11.3 0.00 0.00 0.00 69 1005.1
20210926150116 16 139 3.2 8.0 0.00 0.00 0.00 68 1005.0
20210926145609 15 142 4.8 8.0 0.00 0.00 0.00 68 1005.0
20210926145048 15 136 4.8 11.3 0.00 0.00 0.00 70 1005.0
20210926144530 15 128 3.2 11.3 0.00 0.00 0.00 71 1004.7
20210926144027 15 171 3.2 6.4 0.00 0.00 0.00 70 1004.8
20210926143526 14 171 1.6 11.3 0.00 0.00 0.00 72 1004.7
20210926143107 14 209 3.2 11.3 0.00 0.00 0.00 72 1004.7
20210926142522 14 154 4.8 11.3 0.00 0.00 0.00 73 1004.7
20210926142029 13 136 1.6 11.3 0.00 0.00 0.00 73 1004.8
20210926141523 13 143 1.6 11.3 0.00 0.00 0.00 74 1004.9
20210926141019 13 140 6.4 11.3 0.00 0.00 0.00 74 1004.8
20210926140525 12 171 3.2 6.4 0.00 0.00 0.00 75 1004.9
20210926140048 12 171 4.8 8.0 0.00 0.00 0.00 76 1005.0
20210926135518 12 171 4.8 6.4 0.00 0.00 0.00 76 1004.8
20210926135035 12 171 3.2 8.0 0.00 0.00 0.00 76 1004.9
20210926134518 12 171 4.8 8.0 0.00 0.00 0.00 76 1004.8
20210926134023 12 171 3.2 6.4 0.00 0.00 0.00 76 1004.9
20210926133517 11 182 3.2 6.4 0.00 0.00 0.00 76 1004.9
20210926133024 11 182 0.0 9.7 0.00 0.00 0.00 76 1004.9
20210926132519 11 182 3.2 9.7 0.00 0.00 0.00 77 1004.8
20210926132022 11 180 1.6 9.7 0.00 0.00 0.00 76 1004.8
20210926131534 11 180 4.8 9.7 0.00 0.00 0.00 78 1004.8
20210926131014 11 178 3.2 9.7 0.00 0.00 0.00 78 1004.9
20210926130535 11 186 0.0 11.3 0.00 0.00 0.00 77 1004.9
20210926130029 10 184 4.8 12.9 0.00 0.00 0.00 78 1004.9
20210926125520 10 181 4.8 12.9 0.00 0.00 0.00 78 1004.8
20210926125011 10 189 4.8 14.5 0.00 0.00 0.00 78 1004.8
20210926124016 10 178 6.4 11.3 0.00 0.00 0.00 78 1004.8
20210926123510 10 200 4.8 12.9 0.00 0.00 0.00 78 1004.8
20210926123015 10 171 4.8 17.7 0.00 0.00 0.00 77 1004.8
20210926122507 11 194 6.4 17.7 0.00 0.00 0.00 77 1004.8
20210926122010 11 163 6.4 14.5 0.00 0.00 0.00 77 1004.9
20210926121512 11 186 6.4 14.5 0.00 0.00 0.00 77 1004.8
20210926121011 10 133 6.4 14.5 0.00 0.00 0.00 79 1004.8
20210926120505 10 182 1.6 6.4 0.00 0.00 0.00 79 1004.7
20210926120015 11 182 1.6 8.0 0.00 0.00 0.00 79 1004.8
20210926115503 11 181 3.2 11.3 0.00 0.00 0.00 78 1004.6
20210926115006 11 180 6.4 11.3 0.00 0.00 0.00 77 1004.5
20210926114635 11 197 3.2 9.7 0.00 0.00 0.00 77 1004.7
20210926114059 11 205 3.2 17.7 0.00 0.00 0.00 77 1004.8
20210926113333 11 123 4.8 11.3 0.00 0.00 0.00 77 1004.8
20210926112558 11 175 4.8 9.7 0.00 0.00 0.00 77 1004.8
20210926112112 11 194 6.4 12.9 0.00 0.00 0.00 77 1004.8
20210926111755 11 178 6.4 12.9 0.00 0.00 0.00 77 1004.8
20210926111102 11 168 6.4 16.1 0.00 0.00 0.00 76 1004.8
20210926110611 11 165 6.4 16.1 0.00 0.00 0.00 76 1004.9
20210926110140 11 163 4.8 14.5 0.00 0.00 0.00 76 1004.9
20210926105556 11 190 4.8 12.9 0.00 0.00 0.00 76 1005.0
20210926105112 11 182 4.8 11.3 0.00 0.00 0.00 76 1005.0
20210926104706 11 184 4.8 12.9 0.00 0.00 0.00 76 1004.9
20210926104057 11 182 6.4 11.3 0.00 0.00 0.00 76 1004.9
20210926103159 11 135 4.8 12.9 0.00 0.00 0.00 75 1004.9
20210926102558 11 183 4.8 14.5 0.00 0.00 0.00 75 1005.0
20210926102126 11 142 6.4 19.3 0.00 0.00 0.00 76 1004.9
20210926101600 11 196 8.0 19.3 0.00 0.00 0.00 75 1004.8
20210926101051 11 175 8.0 17.7 0.00 0.00 0.00 75 1004.9
20210926100551 11 154 8.0 16.1 0.00 0.00 0.00 75 1004.9
20210926100106 11 179 6.4 14.5 0.00 0.00 0.00 75 1005.0
20210926095549 11 183 4.8 9.7 0.00 0.00 0.00 76 1004.9
20210926095048 11 187 3.2 12.9 0.00 0.00 0.00 74 1005.0
20210926094718 11 175 4.8 12.9 0.00 0.00 0.00 74 1005.0
20210926094046 11 188 4.8 11.3 0.00 0.00 0.00 75 1005.0
20210926093545 11 173 4.8 11.3 0.00 0.00 0.00 75 1005.1
20210926093117 11 174 4.8 12.9 0.00 0.00 0.00 74 1005.1
20210926092609 11 184 4.8 12.9 0.00 0.00 0.00 74 1005.2
20210926092051 11 200 4.8 11.3 0.00 0.00 0.00 75 1005.2
20210926091626 11 177 4.8 12.9 0.00 0.00 0.00 75 1005.1
20210926091102 11 185 6.4 12.9 0.00 0.00 0.00 75 1005.1
20210926090544 11 198 6.4 12.9 0.00 0.00 0.00 76 1005.2
20210926090108 11 186 4.8 11.3 0.00 0.00 0.00 75 1005.1
20210926085543 11 184 4.8 11.3 0.00 0.00 0.00 75 1005.1
20210926085050 11 181 4.8 11.3 0.00 0.00 0.00 75 1005.1
20210926084621 11 172 6.4 11.3 0.00 0.00 0.00 75 1005.2
20210926084137 11 180 4.8 11.3 0.00 0.00 0.00 75 1005.1
20210926083548 11 184 4.8 12.9 0.00 0.00 0.00 75 1005.2
20210926083128 11 186 3.2 11.3 0.00 0.00 0.00 75 1005.2
20210926082539 11 179 4.8 11.3 0.00 0.00 0.00 75 1005.3
20210926082038 12 190 6.4 12.9 0.00 0.00 0.00 75 1005.3
20210926081541 12 169 6.4 14.5 0.00 0.00 0.00 74 1005.3
20210926081046 12 157 6.4 14.5 0.00 0.00 0.00 75 1005.4
20210926080603 12 181 4.8 11.3 0.00 0.00 0.00 75 1005.5
20210926080037 12 175 6.4 12.9 0.00 0.00 0.00 74 1005.5
20210926075537 12 190 6.4 14.5 0.00 0.00 0.00 74 1005.6
20210926075032 12 176 4.8 9.7 0.00 0.00 0.00 74 1005.7
20210926074623 11 178 3.2 9.7 0.00 0.00 0.00 75 1005.7
20210926074054 11 177 4.8 9.7 0.00 0.00 0.00 75 1005.6
20210926073531 12 173 4.8 8.0 0.00 0.00 0.00 74 1005.6
20210926073117 12 162 4.8 9.7 0.00 0.00 0.00 74 1005.7
20210926072528 12 180 3.2 9.7 0.00 0.00 0.00 73 1005.7
20210926072036 12 138 3.2 8.0 0.00 0.00 0.00 73 1005.7
20210926071557 12 185 4.8 11.3 0.00 0.00 0.00 72 1005.6